Terminal Aerodrome Forecast
Issued by NWS Brownsville, TX

Home | Current Version | Previous Version | Text Only | Print | Product List | Glossary On
Versions: 1 2 3 4 5 6 7 8 9 10 11 12 13 14 15 16 17
153
FTUS44 KBRO 260844 AAA
TAFHRL
TAF AMD
KHRL 260844Z 2609/2706 15015KT P6SM BKN015
      TEMPO 2609/2613 SCT015
     FM261400 16020G27KT P6SM SCT020 BKN030
     FM261800 17024G32KT P6SM SCT030
     FM270300 15015KT P6SM BKN015=

USA.gov is the U.S. government's official web portal to all federal, state and local government web resources and services.